DLH189 EDDM-LPPR

Flight info

Callsign DLH189
Flight time N/A
Altitude 41000
Route ALG2E/08R ALG Y109 UMTEX Y100 TRA DCT LUTIX DCT BENOT DCT NEMOS DCT NINTU DCT MEBAK DCT REPSI DCT LERGA DCT MINSO DCT NARAK DCT AGN DCT PIPOR L866 PPN N976 ZMR L155 ADORO DCT INKIT INKI6C LPPR/35
Aircraft A359/H-SDE2E3GHIJ3J4J5LM1ORWXY/LB1D1

Departure

Time N/A
Airport Munich Airport (EDDM)

Arrival

Time 2026-05-01 13:33
Airport Francisco de Sá Carneiro Airport (LPPR)
Time Latitude Longitude Altitude Speed Heading
2026-05-01 12:41 44.70946 2.62805 41265 ft 466 kts 237°
2026-05-01 12:41 44.67413 2.55206 41260 ft 467 kts 237°
2026-05-01 12:42 44.60345 2.40055 41260 ft 467 kts 237°
2026-05-01 12:42 44.53208 2.24832 41256 ft 467 kts 237°
2026-05-01 12:43 44.46038 2.09621 41248 ft 468 kts 237°
2026-05-01 12:43 44.38851 1.94451 41232 ft 468 kts 236°
2026-05-01 12:44 44.31663 1.79359 41231 ft 468 kts 236°
2026-05-01 12:45 44.17506 1.48750 41217 ft 469 kts 237°
2026-05-01 12:45 44.10423 1.33462 41211 ft 470 kts 237°
2026-05-01 12:46 44.03324 1.18223 41209 ft 470 kts 237°
2026-05-01 12:46 43.96218 1.03043 41203 ft 470 kts 237°
2026-05-01 12:47 43.89053 0.87819 41199 ft 469 kts 237°
2026-05-01 12:47 43.82345 0.72403 41193 ft 469 kts 240°
2026-05-01 12:48 43.75687 0.56841 41205 ft 470 kts 239°
2026-05-01 12:48 43.68902 0.41235 41190 ft 470 kts 239°
2026-05-01 12:49 43.62129 0.25729 41211 ft 470 kts 239°
2026-05-01 12:49 43.55340 0.10267 41190 ft 470 kts 239°
2026-05-01 12:50 43.48622 -0.04952 41188 ft 469 kts 239°
2026-05-01 12:50 43.41763 -0.20408 41179 ft 468 kts 239°
2026-05-01 12:51 43.34975 -0.35626 41195 ft 469 kts 239°
2026-05-01 12:52 43.24748 -0.58402 41172 ft 468 kts 238°
2026-05-01 12:52 43.14417 -0.81233 41170 ft 468 kts 238°
2026-05-01 12:53 43.04121 -1.03809 41164 ft 467 kts 238°
2026-05-01 12:54 42.97200 -1.18916 41146 ft 468 kts 238°
2026-05-01 12:54 42.86808 -1.41375 41175 ft 467 kts 238°
2026-05-01 12:55 42.76408 -1.63713 41186 ft 466 kts 238°
2026-05-01 12:56 42.71172 -1.79777 41177 ft 466 kts 253°
2026-05-01 12:56 42.67529 -1.96096 41162 ft 465 kts 253°
2026-05-01 12:57 42.63748 -2.12763 41143 ft 464 kts 253°
2026-05-01 12:57 42.57733 -2.37753 41136 ft 463 kts 252°
2026-05-01 12:58 42.53661 -2.54360 41130 ft 462 kts 252°
2026-05-01 12:59 42.47569 -2.79062 41123 ft 461 kts 251°
2026-05-01 12:59 42.40233 -3.03121 41127 ft 460 kts 245°
2026-05-01 13:00 42.32190 -3.26568 41136 ft 459 kts 245°
2026-05-01 13:01 42.24090 -3.50041 41150 ft 459 kts 245°
2026-05-01 13:02 42.15962 -3.73393 41146 ft 459 kts 245°
2026-05-01 13:07 41.59243 -5.45280 41153 ft 454 kts 246°
2026-05-01 13:08 41.54180 -5.60599 41148 ft 453 kts 248°
2026-05-01 13:08 41.52691 -5.68781 41150 ft 454 kts 262°
2026-05-01 13:08 41.52017 -5.77200 41148 ft 454 kts 263°
2026-05-01 13:09 41.50851 -5.94029 41142 ft 454 kts 263°
2026-05-01 13:09 41.49622 -6.10669 41152 ft 453 kts 263°
2026-05-01 13:10 41.48323 -6.27316 41128 ft 452 kts 259°
2026-05-01 13:10 41.45465 -6.43648 41146 ft 451 kts 255°
2026-05-01 13:11 41.42560 -6.59628 39535 ft 428 kts 255°
2026-05-01 13:11 41.41722 -6.64191 37811 ft 431 kts 255°
2026-05-01 13:11 41.41008 -6.68077 36262 ft 432 kts 255°
2026-05-01 13:11 41.40287 -6.71987 34696 ft 434 kts 255°
2026-05-01 13:12 41.39573 -6.75856 33097 ft 435 kts 255°
2026-05-01 13:12 41.38857 -6.79726 31513 ft 433 kts 255°
2026-05-01 13:12 41.38119 -6.83708 30274 ft 442 kts 255°
2026-05-01 13:12 41.37388 -6.87642 29653 ft 438 kts 255°
2026-05-01 13:13 41.36660 -6.91560 29152 ft 432 kts 255°
2026-05-01 13:13 41.35949 -6.95375 28640 ft 426 kts 255°
2026-05-01 13:13 41.35232 -6.99218 28106 ft 421 kts 255°
2026-05-01 13:13 41.34526 -7.02987 27584 ft 416 kts 254°
2026-05-01 13:14 41.33827 -7.06712 27068 ft 412 kts 254°
2026-05-01 13:14 41.33145 -7.10342 26563 ft 408 kts 254°
2026-05-01 13:14 41.32452 -7.14021 26027 ft 405 kts 254°
2026-05-01 13:14 41.31768 -7.17647 25514 ft 401 kts 254°
2026-05-01 13:15 41.31094 -7.21216 24978 ft 399 kts 254°
2026-05-01 13:15 41.30417 -7.24788 24462 ft 396 kts 254°
2026-05-01 13:15 41.29748 -7.28318 23934 ft 393 kts 253°
2026-05-01 13:15 41.29078 -7.31840 23363 ft 391 kts 253°
2026-05-01 13:16 41.28414 -7.35330 22815 ft 387 kts 253°
2026-05-01 13:16 41.27764 -7.38734 22297 ft 382 kts 253°
2026-05-01 13:16 41.27111 -7.42156 21780 ft 377 kts 253°
2026-05-01 13:17 41.25207 -7.52078 20278 ft 365 kts 253°
2026-05-01 13:17 41.24590 -7.55287 19781 ft 362 kts 253°
2026-05-01 13:18 41.23352 -7.61703 18790 ft 356 kts 253°
2026-05-01 13:18 41.22739 -7.64873 18286 ft 354 kts 253°
2026-05-01 13:18 41.22131 -7.68023 17774 ft 351 kts 253°
2026-05-01 13:18 41.21728 -7.70108 17452 ft 349 kts 253°
2026-05-01 13:19 41.20930 -7.74223 16798 ft 345 kts 253°
2026-05-01 13:19 41.20331 -7.77302 16318 ft 342 kts 253°
2026-05-01 13:19 41.19341 -7.82382 15523 ft 337 kts 252°
2026-05-01 13:20 41.18760 -7.85358 15073 ft 335 kts 252°
2026-05-01 13:20 41.18156 -7.88345 14589 ft 332 kts 250°
2026-05-01 13:20 41.17326 -7.91166 14172 ft 327 kts 243°
2026-05-01 13:21 41.15433 -7.96606 13231 ft 323 kts 242°
2026-05-01 13:21 41.14492 -7.99297 12761 ft 321 kts 243°
2026-05-01 13:21 41.13554 -8.01986 12318 ft 320 kts 243°
2026-05-01 13:21 41.12621 -8.04666 11867 ft 318 kts 243°
2026-05-01 13:22 41.11700 -8.07308 11421 ft 317 kts 243°
2026-05-01 13:22 41.10765 -8.09992 10950 ft 316 kts 243°
2026-05-01 13:22 41.09843 -8.12633 10513 ft 315 kts 243°
2026-05-01 13:22 41.08948 -8.15204 10322 ft 304 kts 243°
2026-05-01 13:23 41.08078 -8.17703 10189 ft 291 kts 243°
2026-05-01 13:23 41.07242 -8.20098 10004 ft 281 kts 243°
2026-05-01 13:23 41.06456 -8.22343 9641 ft 278 kts 243°
2026-05-01 13:23 41.05641 -8.24663 9273 ft 278 kts 243°
2026-05-01 13:24 41.04832 -8.26965 8939 ft 278 kts 243°
2026-05-01 13:24 41.04018 -8.29283 8575 ft 277 kts 243°
2026-05-01 13:24 41.03207 -8.31613 8231 ft 276 kts 244°
2026-05-01 13:25 41.02205 -8.36478 7577 ft 277 kts 256°
2026-05-01 13:25 41.01808 -8.39011 7220 ft 277 kts 256°
2026-05-01 13:25 41.01411 -8.41510 6987 ft 277 kts 256°
2026-05-01 13:25 41.01013 -8.43972 6594 ft 277 kts 255°
2026-05-01 13:26 41.00615 -8.46441 6106 ft 278 kts 256°
2026-05-01 13:26 41.00207 -8.48987 5679 ft 278 kts 255°
2026-05-01 13:26 40.99826 -8.51494 5241 ft 277 kts 257°
2026-05-01 13:26 40.99468 -8.53962 4849 ft 275 kts 257°
2026-05-01 13:27 40.99107 -8.56447 4533 ft 269 kts 256°
2026-05-01 13:27 40.99032 -8.58861 4294 ft 264 kts 278°
2026-05-01 13:27 41.01395 -8.62136 3983 ft 250 kts 345°
2026-05-01 13:28 41.04672 -8.62845 3756 ft 230 kts 351°
2026-05-01 13:28 41.06222 -8.63221 3616 ft 222 kts 348°
2026-05-01 13:29 41.09212 -8.64024 3043 ft 213 kts 348°
2026-05-01 13:29 41.11882 -8.64724 2523 ft 182 kts 347°
2026-05-01 13:30 41.16591 -8.65928 1603 ft 155 kts 347°
2026-05-01 13:31 41.18563 -8.66466 1181 ft 137 kts 344°
2026-05-01 13:31 41.21307 -8.67197 661 ft 134 kts 345°
2026-05-01 13:32 41.23108 -8.67655 308 ft 130 kts 345°
2026-05-01 13:33 41.24878 -8.68143 243 ft 39 kts 349°
2026-05-01 13:33 41.25279 -8.68085 241 ft 6 kts 50°
2026-05-01 13:34 41.25251 -8.68016 241 ft 8 kts 148°
2026-05-01 13:34 41.25105 -8.67969 241 ft 14 kts 168°
2026-05-01 13:35 41.24876 -8.67902 241 ft 19 kts 159°
2026-05-01 13:35 41.24748 -8.67825 241 ft 21 kts 161°
2026-05-01 13:35 41.24433 -8.67740 241 ft 25 kts 168°
2026-05-01 13:36 41.24305 -8.67692 241 ft 15 kts 152°
2026-05-01 13:36 41.24234 -8.67587 241 ft 16 kts 129°
2026-05-01 13:36 41.24044 -8.67421 241 ft 16 kts 169°
2026-05-01 13:37 41.23986 -8.67422 241 ft 5 kts 174°
2026-05-01 13:37 41.23962 -8.67393 241 ft 6 kts 134°
2026-05-01 13:37 41.23939 -8.67349 241 ft 7 kts 125°
2026-05-01 13:37 41.23930 -8.67332 241 ft 0 kts 125°